Location: Unspecified
(0.0000°N, 0.0000°E)
Time: 01:04:07
(UTC+00:00)

OV1-9 - Visible Passes

Search period start: 04 November 2024 00:00
Search period end: 14 November 2024 00:00
Orbit: 473 x 4516 km, 99.1° (Epoch: 02 November)

Date Brightness Start Highest point End Pass type
(mag) Time Alt. Az. Time Alt. Az. Time Alt. Az.
04 Nov 12.0 19:50:20 10° SE 20:24:06 22° NNE 20:30:26 10° N visible
04 Nov 11.6 22:02:50 10° S 22:42:48 19° NNW 22:46:42 10° NNW visible
05 Nov 12.8 00:32:18 10° WSW 00:36:29 11° WSW 00:37:46 11° WSW visible
05 Nov 12.4 19:04:31 10° ESE 19:31:05 14° NE 19:34:33 10° NNE visible
05 Nov 11.4 21:10:38 10° SSE 21:49:47 25° NNW 21:55:57 10° NNW visible
05 Nov 12.4 23:30:21 10° SSW 23:45:09 27° WSW 23:45:46 27° WSW visible
06 Nov 11.6 20:19:55 10° SE 20:56:45 26° N 21:03:39 10° N visible
06 Nov 11.9 22:35:21 10° S 23:15:26 13° NW 23:16:50 10° NW visible
07 Nov 12.0 19:31:24 10° SE 20:03:40 21° NNE 20:09:40 10° NNE visible
07 Nov 11.5 21:42:13 10° S 22:22:22 22° NNW 22:27:18 10° NNW visible
08 Nov 12.7 00:06:37 10° SW 00:16:38 16° WSW 00:20:39 15° W visible
08 Nov 12.4 18:47:38 10° E 19:10:33 12° NE 19:12:19 10° NE visible
08 Nov 11.4 20:50:28 10° SSE 21:29:15 27° N 21:36:00 10° N visible
08 Nov 12.3 23:08:43 10° SSW 23:25:25 33° WSW 23:28:43 32° W visible
09 Nov 11.7 20:00:20 10° SE 20:36:07 26° NNE 20:43:12 10° N visible
09 Nov 11.8 22:14:26 10° S 22:34:16 56° WSW 22:57:48 10° NNW visible
10 Nov 12.1 19:12:53 10° ESE 19:42:55 19° NNE 19:48:29 10° NNE visible
10 Nov 11.5 21:21:44 10° SSE 21:43:21 84° WSW 22:07:35 10° NNW visible
10 Nov 12.6 23:43:36 10° SW 23:56:48 21° WSW 00:03:48 18° W visible
11 Nov 12.5 18:32:31 10° E 18:49:40 - NE 18:34:23 11° E visible
11 Nov 11.5 20:30:27 10° SSE 20:52:40 67° ENE 21:15:45 10° N visible
11 Nov 12.2 22:47:20 10° SSW 23:05:43 39° WSW 23:27:10 10° NW visible
12 Nov 11.7 19:41:01 10° SE 20:15:01 26° NNE 20:22:24 10° N visible
12 Nov 11.7 21:53:37 10° S 22:14:44 64° WSW 22:38:23 10° NNW visible
13 Nov 12.9 00:25:42 10° WSW 00:27:51 10° WSW 00:30:03 10° WSW visible
13 Nov 12.1 18:54:55 10° ESE 19:21:37 17° NE 19:26:47 10° NNE visible
13 Nov 11.5 21:01:22 10° SSE 21:23:57 88° ENE 21:47:33 10° NNW visible
